Cloud_Cover
0 0 0 0 0 0 0 1 1 35 5 100 100 83 4 5 5 0 0 0 0 0 0 0 1 53 100 100 100 100 100 100 100 100 100 100 100 100 100 100 100 100 100 100
0 0 4 0 0 0 0 0 0 0 5 100 97 100 96 18 5 5 5 0 0 0 0 0 0 1 59 100 100 100 100 100 100 100 100 100 100 100 100 100 100 100 100 100
3 2 11 10 0 0 0 0 0 3 26 100 94 94 100 39 100 86 5 5 0 0 0 0 0 0 20 50 94 100 100 100 100 100 100 100 100 100 100 100 100 100 100 100
92 100 100 0 0 0 0 0 0 0 2 100 100 100 100 100 100 100 10 5 5 0 0 0 0 0 0 25 87 100 100 100 100 100 100 100 100 100 100 100 100 100 100 100
100 95 43 13 1 0 0 0 0 0 4 100 100 75 86 100 100 61 17 64 10 5 5 2 0 0 0 0 13 67 66 61 100 100 100 100 100 100 100 100 100 100 99 100
100 100 84 0 3 6 2 0 0 0 0 93 100 100 100 100 100 96 100 99 100 28 30 63 5 1 0 0 0 0 0 4 5 41 100 100 100 100 100 100 100 100 100 100
98 100 88 98 99 18 14 0 0 0 0 3 99 100 100 100 100 100 100 100 100 100 71 75 84 72 5 1 0 0 0 0 0 10 74 100 100 100 100 100 100 100 100 100
100 100 100 14 9 3 2 0 0 0 0 0 43 100 100 100 100 100 100 100 100 100 100 100 100 100 92 98 54 12 0 0 0 0 0 4 51 43 100 100 100 100 100 100
100 66 54 63 5 3 5 0 0 0 0 0 5 96 100 100 100 100 100 100 100 100 100 100 100 100 100 100 100 100 87 5 5 0 0 0 0 36 100 100 100 100 100 100
100 90 86 26 50 5 4 1 1 4 5 43 34 77 100 100 100 100 100 100 100 100 100 100 100 100 100 100 100 100 100 98 73 40 64 57 29 19 10 90 100 100 100 95
100 47 95 94 56 66 83 76 100 99 62 100 100 100 100 100 100 100 100 100 100 100 100 100 100 100 100 100 100 100 100 100 90 84 98 85 86 86 100 94 89 100 100 100
100 100 100 100 100 100 100 100 100 100 100 100 100 100 100 100 100 100 100 100 100 100 100 100 100 100 100 100 100 84 85 93 100 100 100 100 100 100 100 100 100 100 100 100
100 100 100 100 100 100 100 100 100 100 100 100 100 100 100 100 100 100 100 100 100 100 100 100 100 100 72 71 100 100 100 100 100 100 100 100 100 100 100 100 100 100 100 100
100 100 100 100 100 100 100 100 100 100 100 100 100 100 100 100 100 100 100 100 100 100 100 100 100 100 100 100 100 100 100 100 100 100 100 100 100 100 100 100 100 100 100 100
100 100 100 100 100 100 100 100 100 100 100 100 100 100 100 100 100 100 100 100 100 100 100 100 100 100 100 100 100 100 100 100 100 100 100 100 100 100 100 100 100 100 100 100
100 100 100 100 100 100 100 100 100 100 100 100 100 100 100 100 100 100 100 100 100 100 100 100 100 100 100 100 100 100 100 100 100 100 100 100 100 100 100 100 100 100 100 100
100 100 100 100 100 100 100 100 100 100 100 100 100 100 100 100 100 100 100 100 100 100 100 100 100 100 100 100 100 100 100 100 100 100 100 100 100 100 100 100 100 100 100 100
100 100 100 100 100 100 100 100 100 100 100 100 100 100 100 100 100 100 100 100 100 100 100 100 100 100 100 100 100 100 100 100 100 100 100 100 100 100 100 100 100 100 100 100
100 100 100 100 100 100 100 100 100 100 100 100 100 100 100 100 100 100 100 100 100 100 100 100 100 100 100 100 100 100 100 100 100 100 100 100 100 99 95 100 100 100 100 100
100 100 100 100 100 100 100 100 100 100 100 100 100 100 100 100 100 100 100 99 91 100 100 100 100 100 100 100 100 100 100 100 100 100 98 97 94 99 82 83 95 100 100 100
100 82 80 87 64 68 100 100 100 100 76 66 91 94 90 97 94 38 23 36 89 96 60 8 5 5 6 31 81 86 68 56 11 26 23 8 18 36 22 5 15 23 23 14
100 100 100 100 100 98 95 76 37 24 49 70 52 26 14 5 5 5 13 7 5 5 5 5 5 10 47 89 28 44 16 23 28 5 9 12 10 12 6 5 5 5 5 5
100 100 100 99 100 89 49 28 26 24 24 37 26 5 5 5 5 27 31 5 5 18 84 24 46 86 94 99 10 5 5 5 5 5 6 16 10 28 55 34 21 12 16 13
77 95 62 21 5 5 5 5 5 5 5 5 5 5 5 5 8 5 5 12 8 75 52 7 69 100 100 40 5 5 5 5 5 5 5 24 55 33 13 13 47 100 100 100
78 53 60 58 58 53 44 13 5 5 5 5 5 10 5 5 69 6 5 5 5 12 5 5 36 77 9 5 5 5 27 61 78 68 89 74 15 56 57 46 78 85 65 36
5 8 5 5 58 62 33 16 62 5 8 5 26 5 5 5 5 5 5 5 5 17 5 5 5 64 32 5 43 73 78 92 91 72 75 95 100 87 78 84 84 83 69 72
67 82 65 29 5 57 100 100 100 64 5 12 100 53 84 82 5 5 5 5 5 5 5 6 37 54 91 88 95 78 88 94 98 99 100 94 93 94 77 68 62 66 68 72